Lid_Strength_Index
2 3 3 3 2 3 3 4 10 3 2 9 9 12 11 9 9 9 10 12 13 14 14 16 17 17 15 13 14 15 13 15 19 17 16 16 16 16 16 18 20 20 20 18
3 3 3 2 2 2 3 7 7 3 4 13 12 9 10 9 10 9 10 11 12 12 14 15 15 16 13 13 13 14 13 16 20 19 17 17 17 16 16 16 17 20 20 19
3 4 3 3 2 2 4 9 12 9 6 7 10 11 11 11 8 9 10 11 11 13 13 12 15 15 13 13 13 10 11 15 17 17 17 16 18 17 16 16 20 18 17 15
3 4 4 4 4 4 6 10 12 11 12 11 10 9 10 12 12 9 9 12 11 12 13 13 13 14 14 14 12 12 12 16 17 17 17 16 16 17 17 17 15 16 15 15
3 4 5 5 5 5 10 12 13 12 13 12 11 10 11 12 11 11 12 11 11 10 12 12 13 13 14 14 14 14 13 16 17 19 17 17 18 17 17 16 15 15 15 15
3 4 5 5 6 6 10 11 11 11 12 13 13 12 11 11 9 11 10 10 11 12 10 11 13 11 12 12 14 15 15 17 17 17 20 18 18 17 17 16 16 14 17 13
2 4 4 6 6 8 9 11 11 13 16 13 13 13 12 12 11 12 13 11 11 14 13 12 13 14 14 14 15 13 16 16 16 22 20 22 19 21 16 15 15 16 16 18
2 2 3 5 6 7 10 10 11 13 15 14 15 14 14 13 14 15 15 16 15 12 13 16 17 18 17 19 20 17 15 16 20 21 20 19 20 20 18 17 17 16 14 15
2 2 2 3 6 6 9 10 10 12 15 15 14 15 15 16 16 17 18 16 15 13 15 16 19 20 19 21 21 19 16 15 15 21 21 22 21 19 18 17 20 18 14 14
2 2 1 2 4 5 9 10 8 11 14 14 14 15 15 14 15 17 17 17 15 15 16 18 19 20 18 21 22 22 20 20 18 20 20 19 19 20 18 20 18 20 18 19
1 1 1 1 3 4 8 10 8 10 14 14 14 14 14 15 14 16 17 16 16 17 16 17 18 19 19 20 21 21 20 20 21 20 21 21 18 19 19 16 18 18 18 17
1 1 1 1 2 4 7 11 8 9 13 14 12 11 12 12 10 14 16 15 16 15 16 17 18 21 22 21 21 21 20 17 19 18 18 18 16 16 15 15 15 16 16 15
1 1 1 1 1 2 5 10 10 11 15 14 14 14 11 10 11 10 14 15 13 14 14 16 18 18 19 23 22 21 20 19 20 19 19 18 16 15 15 14 14 14 14 14
1 1 1 1 1 1 3 7 7 9 14 18 15 12 13 10 11 12 12 13 14 14 14 16 18 19 17 19 18 18 18 19 21 20 19 17 15 14 12 12 13 14 14 13
1 1 1 1 0 0 2 4 5 6 10 16 17 14 13 12 11 13 13 13 14 15 17 18 19 18 18 19 18 21 18 20 20 20 16 15 13 11 11 12 12 12 13 13
1 1 1 1 0 0 3 8 5 4 5 11 13 13 14 12 12 13 14 14 14 15 16 17 17 16 17 21 22 17 17 16 15 15 13 12 11 11 12 12 12 12 12 12
1 1 1 0 0 2 7 8 7 3 4 10 14 18 13 12 13 14 13 12 13 13 15 17 16 16 15 19 21 16 15 14 13 12 12 13 12 12 12 12 11 13 14 14
1 1 0 -0 0 1 5 3 2 2 7 8 13 18 14 11 13 13 12 13 14 14 15 15 15 14 14 20 15 13 13 13 13 12 12 11 12 13 13 13 14 15 14 13
0 -0 0 2 4 7 6 1 1 4 6 10 12 17 18 11 11 12 12 11 17 12 16 14 14 18 19 15 13 13 12 12 12 12 13 14 14 12 15 15 17 14 13 14
-0 3 6 9 7 1 3 5 7 8 8 8 14 20 18 11 12 14 16 15 16 18 16 12 13 16 12 11 12 12 11 11 12 15 16 19 17 14 13 15 13 13 12 14
3 7 8 5 2 6 8 10 10 10 12 9 16 18 15 13 17 18 12 16 14 17 19 17 19 21 13 10 11 10 10 11 12 12 12 14 13 13 14 15 14 14 16 18
5 5 4 6 8 11 12 13 12 13 13 14 14 15 17 16 13 13 11 14 14 18 19 16 19 17 20 21 19 18 18 20 17 18 15 17 16 18 18 20 21 23 23 23
5 7 8 10 10 14 16 18 18 20 22 18 16 17 14 14 12 13 13 15 15 15 16 19 18 20 24 26 25 25 23 23 23 22 23 22 24 24 25 25 26 26 27 29
9 11 14 13 15 13 18 19 19 18 18 16 16 14 15 15 14 13 15 15 15 17 20 22 25 27 28 27 28 30 28 28 27 27 26 26 26 27 28 28 29 27 27 29
11 11 15 16 23 25 29 31 23 20 16 13 15 16 12 18 14 12 15 17 18 21 22 26 28 28 29 29 30 31 31 30 30 31 30 28 28 30 31 32 31 29 29 29
14 18 17 20 17 21 25 27 19 17 14 16 15 16 15 14 13 14 16 18 21 21 28 27 27 29 30 32 32 33 33 35 33 32 32 29 30 31 34 34 32 31 30 30
18 25 30 28 23 22 25 25 16 14 17 19 17 17 16 13 15 16 20 17 22 23 24 24 26 28 29 31 32 33 34 32 32 32 32 33 34 33 30 30 33 32 32 30